Tracking 21612 objects as of 20-Oct-2020
HD Live streaming from Space Station
objects crossing your sky now

RADUGA 2

Track RADUGA 2 now!
RADUGA 2 is classified as:


NORAD ID: 9416
Int'l Code: 1976-092A
Perigee: 35,670.2 km
Apogee: 35,905.1 km
Inclination: 8.7 °
Period: 1,435.8 minutes
Semi major axis: 42158 km
RCS: 0.1428 m2 (medium)
Launch date: September 11, 1976
Source: Commonwealth of Independent States (former USSR) (CIS)
Launch site: TYURATAM MISSILE AND SPACE COMPLEX (TTMTR)
aabbcc
Your satellite tracking list
Your tracking list is empty




NASA's NSSDC Master Catalog

Two Line Element Set (TLE):
1  9416U 76092A   20294.53104956 -.00000181 +00000-0 +00000-0 0  9995
2  9416 008.6550 298.6269 0027863 338.4322 025.5710 01.00293599108635
Source of the keplerian elements: AFSPC